Location: Lake Zurich
(42.1970°N, 88.0930°W)
Time: 06:42:35
(UTC-05:00)

Amateur Radio Satellites - All Passes

Search period start: 25 March 2017 06:12
Search period end: 26 March 2017 06:12
Location: Lake Zurich, 42.1970°N, 88.0930°W

Satellite Date Start Highest point End Downlink Frequencies (MHz)
Time Altitude Azimuth
XW-2D 25 Mar 06:20:57 06:23:56 22° 95° (E) 06:26:53 145.860 - 145.880
XW-2B 25 Mar 06:26:44 06:29:51 25° 95° (E) 06:32:58 145.730 - 145.750
NUDT-PHONESAT 25 Mar 06:26:47 06:29:32 20° 94° (E) 06:32:16 437.300
STARS 25 Mar 06:28:33 06:30:45 14° 269° (W) 06:32:58 437.465
AO-85 25 Mar 06:30:15 06:34:12 83° 236° (SW) 06:38:14 145.980
KAITUO 1B 25 Mar 06:31:42 06:34:41 23° 95° (E) 06:37:39 145.475/437.950
BEESAT 3 25 Mar 06:36:27 06:38:56 16° 41° (NE) 06:41:24 437.485
XW-2C 25 Mar 06:36:36 06:40:02 33° 97° (E) 06:43:25 145.795 - 145.815
BEESAT 2 25 Mar 06:49:47 06:50:22 10° 35° (NE) 06:50:56 435.950
STRAND 1 25 Mar 06:49:52 06:54:42 42° 69° (ENE) 06:59:32 437.568
YUBILEINY 25 Mar 07:04:29 07:11:45 31° 83° (E) 07:18:59 435.215
CUTE-I 25 Mar 07:12:43 07:18:05 71° 103° (ESE) 07:23:24 437.470
M-CUBED/EXP-1 PRIME 25 Mar 07:23:02 07:24:24 12° 266° (W) 07:25:47 437.505
DOVE 4 25 Mar 07:23:19 07:28:32 59° 287° (WNW) 07:33:42 437.250
NO-84 25 Mar 07:26:51 07:29:34 40° 134° (SE) 07:32:16 435.350 FM
LilacSat-2 25 Mar 07:28:01 07:31:41 50° 286° (WNW) 07:35:19 437.200
XW-2F 25 Mar 07:29:38 07:33:16 51° 286° (WNW) 07:36:52 145.980 - 146.000
HO-68 25 Mar 07:44:57 07:51:22 34° 96° (E) 07:57:45 435.675
SEEDS 25 Mar 07:50:04 07:53:04 19° 93° (E) 07:56:03 437.485
AO-7 25 Mar 07:52:26 07:52:39 10° 322° (NW) 07:52:52 .
CUTE 1.7 + AOD 2 25 Mar 07:53:14 07:57:01 31° 96° (E) 08:00:46 437.475
XW-2D 25 Mar 07:54:59 07:58:04 25° 291° (WNW) 08:01:09 145.860 - 145.880
NUDT-PHONESAT 25 Mar 08:00:20 08:03:27 26° 290° (WNW) 08:06:33 437.300
XW-2B 25 Mar 08:01:00 08:03:57 22° 291° (WNW) 08:06:52 145.730 - 145.750
KAITUO 1B 25 Mar 08:05:40 08:08:38 23° 291° (WNW) 08:11:35 145.475/437.950
XW-2C 25 Mar 08:11:30 08:13:59 17° 293° (WNW) 08:16:27 145.795 - 145.815
BEESAT 3 25 Mar 08:12:58 08:16:58 67° 240° (WSW) 08:20:55 437.485
BEESAT 2 25 Mar 08:24:53 08:28:56 65° 54° (NE) 08:32:57 435.950
UWE-3 25 Mar 08:25:22 08:28:30 20° 92° (E) 08:31:35 435.000/436.395/437.385
STRAND 1 25 Mar 08:29:53 08:34:01 24° 266° (W) 08:38:10 437.568
XW-2A 25 Mar 08:37:02 08:40:21 50° 286° (WNW) 08:43:37 145.665 - 145.685
CUTE-I 25 Mar 08:54:12 08:57:31 17° 300° (WNW) 09:00:49 437.470
CUBEBUG 2 25 Mar 08:54:48 08:59:15 69° 102° (ESE) 09:03:31 437.445
YUBILEINY 25 Mar 08:59:23 09:07:59 59° 283° (WNW) 09:16:36 435.215
Oscar 11 25 Mar 09:04:51 09:08:22 24° 94° (E) 09:11:51 .
NO-84 25 Mar 09:05:04 09:07:13 19° 333° (NNW) 09:09:25 435.350 FM
ZACube-1 25 Mar 09:09:11 09:13:03 33° 97° (E) 09:16:50 437.345
AAUSAT CUBESAT 2 25 Mar 09:13:49 09:17:58 82° 102° (ESE) 09:22:08 437.432
SEEDS 25 Mar 09:25:01 09:28:52 36° 289° (WNW) 09:32:42 437.485
CUTE 1.7 + AOD 2 25 Mar 09:29:22 09:32:41 23° 292° (WNW) 09:35:59 437.475
HO-68 25 Mar 09:32:26 09:39:13 48° 294° (WNW) 09:46:00 435.675
PRISM 25 Mar 09:32:54 09:36:56 76° 76° (ENE) 09:41:02 437.425
AO-73 25 Mar 09:38:17 09:42:30 66° 100° (E) 09:46:37 145.935
FO-29 25 Mar 09:40:05 09:47:14 41° 66° (ENE) 09:54:00 435.910
TIGRISAT 25 Mar 09:43:28 09:47:56 45° 72° (ENE) 09:52:23 435.000
UNISAT 6 25 Mar 09:52:59 09:57:36 61° 74° (ENE) 10:02:14 437.425
UWE-3 25 Mar 10:01:07 10:05:06 36° 290° (WNW) 10:08:58 435.000/436.395/437.385
BEESAT 2 25 Mar 10:04:40 10:06:10 12° 252° (WSW) 10:07:39 435.950
PCSat 25 Mar 10:07:10 10:12:28 59° 115° (ESE) 10:17:49 145.827
CUBEBUG 2 25 Mar 10:33:24 10:35:14 12° 299° (WNW) 10:37:01 437.445
NANOSAT C BR1 25 Mar 10:40:01 10:42:27 15° 64° (ENE) 10:44:53 145.865
Oscar 11 25 Mar 10:40:44 10:44:30 30° 291° (WNW) 10:48:15 .
EO-79 25 Mar 10:43:10 10:46:01 18° 65° (ENE) 10:48:52 145.935-145.965
ZACube-1 25 Mar 10:45:55 10:49:07 21° 294° (WNW) 10:52:16 437.345
DELFI C3 25 Mar 10:46:44 10:50:43 78° 284° (WNW) 10:54:42 145.870
YUBILEINY 25 Mar 11:04:13 11:06:58 12° 306° (NW) 11:09:44 435.215
AIST 2D 25 Mar 11:08:55 11:12:20 50° 75° (ENE) 11:15:47 435.315
POLYITAN 1 25 Mar 11:09:40 11:13:30 33° 70° (ENE) 11:17:22 437.675
ESTCUBE 1 25 Mar 11:11:12 11:13:12 13° 90° (E) 11:15:11 437.505/2401.250
QB50P2 25 Mar 11:14:03 11:18:02 39° 71° (ENE) 11:22:02 145.880/145.840
LO-87 25 Mar 11:14:15 11:17:13 23° 95° (E) 11:20:10 145.935 - 145.965
AO-73 25 Mar 11:16:36 11:18:09 12° 298° (WNW) 11:19:42 145.935
TIGRISAT 25 Mar 11:21:27 11:24:48 19° 268° (W) 11:28:09 435.000
FO-29 25 Mar 11:24:40 11:32:06 45° 263° (W) 11:39:13 435.910
DUCHIFAT 1 25 Mar 11:28:24 11:32:26 43° 71° (ENE) 11:36:28 145.980
UNISAT 6 25 Mar 11:32:11 11:34:41 14° 270° (W) 11:37:11 437.425
BUGSAT 1 25 Mar 11:50:50 11:54:22 26° 68° (ENE) 11:57:55 437.445
PCSat 25 Mar 11:51:53 11:56:15 24° 314° (NW) 12:00:39 145.827
Oscar 19 25 Mar 11:54:57 11:56:57 12° 58° (ENE) 11:58:56 437.125/150
NANOSAT C BR1 25 Mar 12:13:34 12:17:44 53° 260° (W) 12:21:55 145.865
RS-15 25 Mar 12:14:47 12:25:26 40° 106° (ESE) 12:36:24 29.354- 29.394
EO-79 25 Mar 12:17:21 12:21:26 44° 261° (W) 12:25:33 145.935-145.965
NO-84 25 Mar 12:23:46 12:24:37 11° 17° (NNE) 12:25:28 435.350 FM
VELOX 1 25 Mar 12:28:30 12:32:15 26° 95° (E) 12:35:58 145.980
ESTCUBE 1 25 Mar 12:45:56 12:50:24 63° 286° (WNW) 12:54:51 437.505/2401.250
POLYITAN 1 25 Mar 12:45:58 12:49:19 22° 266° (W) 12:52:43 437.675
LO-87 25 Mar 12:47:40 12:50:35 23° 291° (WNW) 12:53:28 145.935 - 145.965
QB50P2 25 Mar 12:50:57 12:53:57 18° 267° (W) 12:56:58 145.880/145.840
UKube-1 25 Mar 12:54:21 12:56:33 14° 91° (E) 12:58:46 .
DUCHIFAT 1 25 Mar 13:05:32 13:08:17 17° 268° (W) 13:11:03 145.980
AO-7 25 Mar 13:13:10 13:17:41 16° 45° (NE) 13:22:11 .
SPROUT 25 Mar 13:22:43 13:27:02 89° 92° (E) 13:31:18 437.525
BUGSAT 1 25 Mar 13:26:00 13:29:38 27° 264° (W) 13:33:17 437.445
Oscar 19 25 Mar 13:30:22 13:35:29 89° 76° (ENE) 13:40:38 437.125/150
Gurwin Techsat 1B 25 Mar 13:33:58 13:39:09 56° 71° (ENE) 13:44:21 435.225
ITAMSAT 1 25 Mar 13:39:09 13:40:56 12° 57° (ENE) 13:42:43 435.822/435.867
DX 1 25 Mar 13:45:45 13:50:09 72° 102° (ESE) 13:54:32 434.975-435.025
50 SAT 25 Mar 13:50:12 13:53:36 48° 286° (WNW) 13:56:59 437.505
NO-84 25 Mar 13:59:47 14:02:49 41° 36° (NE) 14:06:05 435.350 FM
VELOX 1 25 Mar 14:04:46 14:08:41 30° 292° (WNW) 14:12:35 145.980
RS-15 25 Mar 14:25:19 14:37:17 67° 309° (NW) 14:49:41 29.354- 29.394
UKube-1 25 Mar 14:28:40 14:32:55 54° 287° (WNW) 14:37:08 .
AO-7 25 Mar 15:00:41 15:08:53 65° 66° (ENE) 15:17:05 .
SO-50 25 Mar 15:03:08 15:07:33 44° 117° (ESE) 15:11:56 436.795
ITAMSAT 1 25 Mar 15:14:19 15:19:33 82° 75° (ENE) 15:24:48 435.822/435.867
Oscar 19 25 Mar 15:14:32 15:15:29 10° 272° (W) 15:16:25 437.125/150
Gurwin Techsat 1B 25 Mar 15:15:44 15:19:26 19° 268° (W) 15:23:09 435.225
DX 1 25 Mar 15:24:00 15:25:45 12° 299° (WNW) 15:27:29 434.975-435.025
NO-84 25 Mar 15:37:40 15:40:13 20° 230° (SW) 15:42:58 435.350 FM
BEESAT 25 Mar 15:40:40 15:45:24 62° 101° (ESE) 15:50:05 436.000
ITUPSAT 1 25 Mar 15:56:01 16:00:49 86° 101° (E) 16:05:35 437.325
MOZHAYETS 4 25 Mar 16:08:38 16:13:05 51° 100° (E) 16:17:30
O/OREOS (USA 219) 25 Mar 16:09:38 16:10:52 11° 97° (E) 16:12:07 437.305
RS-15 25 Mar 16:42:34 16:52:48 29° 339° (NNW) 17:03:09 29.354- 29.394
SO-50 25 Mar 16:44:19 16:48:11 25° 315° (NW) 16:52:01 436.795
DOVE 4 25 Mar 16:53:07 16:56:16 18° 62° (ENE) 16:59:32 437.250
AO-7 25 Mar 16:55:13 17:02:08 29° 265° (W) 17:09:06 .
CUTE-I 25 Mar 16:57:30 17:00:55 17° 60° (ENE) 17:04:20 437.470
ITAMSAT 1 25 Mar 16:57:34 16:59:37 12° 271° (W) 17:01:41 435.822/435.867
CUBESAT XI-V 25 Mar 16:57:49 17:01:50 28° 95° (E) 17:05:51 437.345
XW-2D 25 Mar 17:03:57 17:05:43 13° 65° (ENE) 17:07:29 145.860 - 145.880
NUDT-PHONESAT 25 Mar 17:08:27 17:09:32 11° 64° (ENE) 17:10:36 437.300
XW-2B 25 Mar 17:09:28 17:11:35 14° 66° (ENE) 17:13:41 145.730 - 145.750
PCSat 25 Mar 17:13:23 17:15:06 11° 34° (NNE) 17:16:51 145.827
KAITUO 1B 25 Mar 17:13:33 17:15:17 13° 65° (ENE) 17:17:00 145.475/437.950
YUBILEINY 25 Mar 17:14:14 17:18:50 15° 57° (ENE) 17:23:26 435.215
XW-2C 25 Mar 17:18:56 17:21:37 19° 67° (ENE) 17:24:19 145.795 - 145.815
BEESAT 25 Mar 17:19:50 17:22:39 16° 299° (WNW) 17:25:29 436.000
KKS-1 25 Mar 17:35:09 17:39:41 89° 124° (SE) 17:44:09 437.445
ITUPSAT 1 25 Mar 17:36:16 17:37:56 12° 301° (WNW) 17:39:36 437.325
O/OREOS (USA 219) 25 Mar 17:45:05 17:49:35 72° 294° (WNW) 17:54:10 437.305
MOZHAYETS 4 25 Mar 17:46:53 17:49:50 17° 296° (WNW) 17:52:46
LilacSat-2 25 Mar 18:09:44 18:13:34 80° 75° (ENE) 18:17:24 437.200
XW-2F 25 Mar 18:10:26 18:14:13 75° 75° (ENE) 18:18:00 145.980 - 146.000
STARS 25 Mar 18:14:35 18:19:02 78° 285° (WNW) 18:23:25 437.465
HO-68 25 Mar 18:14:44 18:20:34 28° 59° (ENE) 18:26:25 435.675
DOVE 4 25 Mar 18:28:55 18:33:26 54° 261° (W) 18:38:18 437.250
CUTE-I 25 Mar 18:35:01 18:40:22 70° 258° (WSW) 18:45:46 437.470
CUBESAT XI-V 25 Mar 18:35:07 18:39:09 30° 292° (WNW) 18:43:11 437.345
XW-2D 25 Mar 18:35:48 18:39:30 48° 261° (W) 18:43:12 145.860 - 145.880
NUDT-PHONESAT 25 Mar 18:39:18 18:42:59 56° 260° (W) 18:46:41 437.300
XW-2B 25 Mar 18:41:48 18:45:25 42° 261° (W) 18:49:04 145.730 - 145.750
SEEDS 25 Mar 18:43:00 18:45:19 15° 64° (ENE) 18:47:39 437.485
KAITUO 1B 25 Mar 18:45:16 18:48:54 46° 261° (W) 18:52:31 145.475/437.950
CUTE 1.7 + AOD 2 25 Mar 18:46:31 18:49:55 24° 68° (ENE) 18:53:18 437.475
XW-2C 25 Mar 18:52:11 18:55:36 31° 263° (W) 18:59:03 145.795 - 145.815
PCSat 25 Mar 18:54:30 18:59:49 52° 55° (NE) 19:05:06 145.827
M-CUBED/EXP-1 PRIME 25 Mar 18:57:41 19:02:02 39° 103° (ESE) 19:06:25 437.505
RS-15 25 Mar 19:00:50 19:10:49 27° 15° (NNE) 19:20:38 29.354- 29.394
STRAND 1 25 Mar 19:01:33 19:03:56 13° 89° (E) 19:06:19 437.568
XW-2A 25 Mar 19:08:24 19:11:45 50° 74° (ENE) 19:15:08 145.665 - 145.685
YUBILEINY 25 Mar 19:08:40 19:17:24 72° 80° (E) 19:26:05 435.215
KKS-1 25 Mar 19:14:54 19:15:30 10° 301° (WNW) 19:16:05 437.445
UWE-3 25 Mar 19:22:34 19:25:54 20° 65° (ENE) 19:29:13 435.000/436.395/437.385
CUBEBUG 2 25 Mar 19:52:23 19:57:04 61° 74° (ENE) 20:01:45 437.445
Oscar 11 25 Mar 20:00:22 20:03:34 21° 66° (ENE) 20:06:45 .
HO-68 25 Mar 20:00:46 20:07:49 61° 258° (WSW) 20:14:54 435.675
AAUSAT CUBESAT 2 25 Mar 20:04:02 20:08:01 54° 74° (ENE) 20:12:03 437.432
ZACube-1 25 Mar 20:05:00 20:08:58 30° 69° (ENE) 20:12:53 437.345
SEEDS 25 Mar 20:16:33 20:20:35 50° 261° (W) 20:24:39 437.485
CUTE 1.7 + AOD 2 25 Mar 20:21:56 20:25:38 29° 264° (W) 20:29:19 437.475
M-CUBED/EXP-1 PRIME 25 Mar 20:32:30 20:36:14 25° 298° (WNW) 20:40:01 437.505
AO-73 25 Mar 20:33:29 20:37:54 54° 73° (ENE) 20:42:17 145.935
STRAND 1 25 Mar 20:38:32 20:43:39 74° 286° (WNW) 20:48:44 437.568
PCSat 25 Mar 20:38:39 20:42:50 23° 253° (WSW) 20:47:00 145.827
AO-85 25 Mar 20:45:20 20:49:06 27° 115° (ESE) 20:52:40 145.980
UWE-3 25 Mar 20:57:33 21:02:01 46° 261° (W) 21:06:29 435.000/436.395/437.385
YUBILEINY 25 Mar 21:06:49 21:13:18 24° 280° (W) 21:19:47 435.215
ISS 25 Mar 21:07:41 21:10:43 37° 139° (SE) 21:13:48 437.550
Tancredo 1 25 Mar 21:12:27 21:15:30 47° 140° (SE) 21:18:35 437.200
RS-15 25 Mar 21:14:48 21:26:56 57° 46° (NE) 21:38:32 29.354- 29.394
CUBEBUG 2 25 Mar 21:31:24 21:34:02 15° 270° (W) 21:36:41 437.445
DELFI C3 25 Mar 21:32:16 21:36:08 60° 74° (ENE) 21:40:01 145.870
Oscar 11 25 Mar 21:35:27 21:39:27 37° 263° (W) 21:43:28 .
ZACube-1 25 Mar 21:41:20 21:45:12 27° 265° (W) 21:49:02 437.345
AAUSAT CUBESAT 2 25 Mar 21:42:10 21:43:49 12° 270° (W) 21:45:30 437.432
UNISAT 6 25 Mar 21:46:35 21:48:08 12° 89° (E) 21:49:41 437.425
LO-87 25 Mar 21:52:46 21:53:51 11° 64° (ENE) 21:54:57 145.935 - 145.965
BEESAT 3 25 Mar 22:04:22 22:06:54 17° 111° (ESE) 22:09:28 437.485
ESTCUBE 1 25 Mar 22:11:34 22:13:45 13° 62° (ENE) 22:15:55 437.505/2401.250
AO-73 25 Mar 22:11:51 22:14:25 15° 269° (W) 22:16:59 145.935
STRAND 1 25 Mar 22:21:48 22:21:54 10° 304° (NW) 22:22:00 437.568
AO-85 25 Mar 22:25:29 22:29:25 32° 310° (NW) 22:33:08 145.980
FO-29 25 Mar 22:35:23 22:40:20 26° 92° (E) 22:44:50 435.910
ISS 25 Mar 22:44:15 22:47:14 32° 336° (NNW) 22:50:14 437.550
PRISM 25 Mar 22:48:42 22:52:51 70° 286° (WNW) 22:57:00 437.425
Tancredo 1 25 Mar 22:48:58 22:51:46 27° 338° (NNW) 22:54:34 437.200
TIGRISAT 25 Mar 23:10:57 23:15:25 89° 283° (WNW) 23:19:44 435.000
UNISAT 6 25 Mar 23:20:54 23:25:19 64° 286° (WNW) 23:29:36 437.425
LO-87 25 Mar 23:23:20 23:26:50 50° 260° (W) 23:30:23 145.935 - 145.965
VELOX 1 25 Mar 23:26:18 23:29:52 25° 67° (ENE) 23:33:28 145.980
RS-15 25 Mar 23:27:50 23:39:18 50° 250° (WSW) 23:50:17 29.354- 29.394
SO-50 25 Mar 23:33:51 23:38:11 45° 51° (NE) 23:42:30 436.795
BEESAT 3 25 Mar 23:40:23 23:44:09 44° 308° (NW) 23:47:59 437.485
ESTCUBE 1 25 Mar 23:45:33 23:49:59 66° 258° (WSW) 23:54:28 437.505/2401.250
UKube-1 25 Mar 23:49:46 23:51:53 14° 62° (ENE) 23:54:00 .
BEESAT 2 25 Mar 23:53:47 23:57:44 79° 303° (WNW) 00:01:47 435.950
NANOSAT C BR1 25 Mar 23:57:49 00:01:11 23° 94° (E) 00:04:30 145.865
EO-79 26 Mar 00:01:39 00:05:17 27° 96° (E) 00:08:53 145.935-145.965
AIST 2D 26 Mar 00:06:36 00:10:03 58° 100° (E) 00:13:29 435.315
SPROUT 26 Mar 00:16:02 00:20:18 71° 75° (ENE) 00:24:37 437.525
FO-29 26 Mar 00:19:55 00:25:41 44° 293° (WNW) 00:30:52 435.910
ISS 26 Mar 00:22:18 00:24:26 16° 356° (N) 00:26:35 437.550
50 SAT 26 Mar 00:23:46 00:27:09 62° 75° (ENE) 00:30:35 437.505
Tancredo 1 26 Mar 00:26:43 00:28:42 15° 358° (N) 00:30:40 437.200
POLYITAN 1 26 Mar 00:29:08 00:33:19 56° 100° (E) 00:37:27 437.675
QB50P2 26 Mar 00:33:40 00:37:55 69° 101° (E) 00:42:07 145.880/145.840
DX 1 26 Mar 00:41:22 00:45:40 65° 74° (ENE) 00:50:00 434.975-435.025
DUCHIFAT 1 26 Mar 00:47:07 00:51:21 75° 102° (ESE) 00:55:32 145.980
VELOX 1 26 Mar 01:02:15 01:06:10 31° 263° (W) 01:10:08 145.980
BUGSAT 1 26 Mar 01:06:39 01:10:36 39° 98° (E) 01:14:29 437.445
SO-50 26 Mar 01:14:59 01:18:20 21° 248° (WSW) 01:21:40 436.795
UKube-1 26 Mar 01:23:08 01:27:23 62° 258° (WSW) 01:31:41 .
ITUPSAT 1 26 Mar 01:28:26 01:30:36 13° 60° (ENE) 01:32:45 437.325
NANOSAT C BR1 26 Mar 01:33:11 01:36:54 31° 291° (WNW) 01:40:36 145.865
BEESAT 2 26 Mar 01:34:47 01:36:12 12° 323° (NW) 01:37:38 435.950
EO-79 26 Mar 01:37:25 01:40:58 26° 292° (WNW) 01:44:28 145.935-145.965
Oscar 19 26 Mar 01:41:42 01:46:14 30° 96° (E) 01:50:44 437.125/150
Gurwin Techsat 1B 26 Mar 01:50:25 01:54:24 21° 93° (E) 01:58:21 435.225
SPROUT 26 Mar 01:56:02 01:56:41 10° 271° (W) 01:57:21 437.525
ISS 26 Mar 01:59:10 02:01:47 21° 16° (NNE) 02:04:25 437.550
Tancredo 1 26 Mar 02:03:04 02:05:40 22° 18° (NNE) 02:08:19 437.200
POLYITAN 1 26 Mar 02:06:25 02:08:37 14° 297° (WNW) 02:10:49 437.675
QB50P2 26 Mar 02:11:36 02:13:07 12° 299° (WNW) 02:14:39 145.880/145.840
O/OREOS (USA 219) 26 Mar 02:15:47 02:19:40 26° 57° (ENE) 02:23:30 437.305
DX 1 26 Mar 02:20:49 02:22:17 11° 270° (W) 02:23:45 434.975-435.025
DUCHIFAT 1 26 Mar 02:25:20 02:26:24 11° 299° (WNW) 02:27:27 145.980
BUGSAT 1 26 Mar 02:42:46 02:45:39 18° 295° (WNW) 02:48:31 437.445
BEESAT 26 Mar 02:47:13 02:51:59 75° 74° (ENE) 02:56:47 436.000
ITUPSAT 1 26 Mar 03:02:58 03:07:46 78° 257° (WSW) 03:12:35 437.325
AO-7 26 Mar 03:03:20 03:08:45 19° 90° (E) 03:14:08 .
MOZHAYETS 4 26 Mar 03:10:39 03:15:06 51° 72° (ENE) 03:19:33
Oscar 19 26 Mar 03:20:55 03:25:33 34° 292° (WNW) 03:30:10 437.125/150
ITAMSAT 1 26 Mar 03:27:12 03:31:36 27° 95° (E) 03:35:57 435.822/435.867
Gurwin Techsat 1B 26 Mar 03:29:28 03:34:36 50° 290° (WNW) 03:39:43 435.225
ISS 26 Mar 03:35:19 03:38:37 89° 38° (NE) 03:41:55 437.550
STARS 26 Mar 03:38:53 03:39:55 11° 59° (ENE) 03:40:58 437.465
Tancredo 1 26 Mar 03:38:54 03:42:07 74° 215° (SW) 03:45:18 437.200
O/OREOS (USA 219) 26 Mar 03:54:56 03:59:06 34° 255° (WSW) 04:03:15 437.305
CUBESAT XI-V 26 Mar 04:01:35 04:05:32 29° 68° (ENE) 04:09:30 437.345
BEESAT 26 Mar 04:28:37 04:30:17 12° 271° (W) 04:31:57 436.000
KKS-1 26 Mar 04:33:14 04:37:41 86° 79° (E) 04:42:12 437.445
MOZHAYETS 4 26 Mar 04:49:41 04:52:32 16° 269° (W) 04:55:23
AO-7 26 Mar 04:54:10 05:02:31 90° 289° (WNW) 05:10:49 .
ITAMSAT 1 26 Mar 05:06:21 05:11:07 38° 292° (WNW) 05:15:52 435.822/435.867
STARS 26 Mar 05:11:09 05:15:35 84° 260° (W) 05:20:03 437.465
ISS 26 Mar 05:13:42 05:14:37 11° 231° (SW) 05:15:32 437.550
AO-85 26 Mar 05:15:37 05:18:58 26° 48° (NE) 05:22:21 145.980
CUBESAT XI-V 26 Mar 05:38:55 05:42:51 28° 265° (W) 05:46:49 437.345
M-CUBED/EXP-1 PRIME 26 Mar 05:44:16 05:47:47 45° 67° (ENE) 05:51:37 437.505
